Stations météo

Publicité
Le Touquet, France (7003): Température de l'air & dewpoint: 20.09.2017 11:00:00 - 26.09.2017 11:00:00 (CEST)Le Touquet, France (7003): Température de l'air 5cm: 20.09.2017 11:00:00 - 26.09.2017 11:00:00 (CEST)Le Touquet, France (7003): Vitesse du vent & gusts: 20.09.2017 11:00:00 - 26.09.2017 11:00:00 (CEST)Le Touquet, France (7003): Direction du vent: 20.09.2017 11:00:00 - 26.09.2017 11:00:00 (CEST)Le Touquet, France (7003): reduced air pressure: 20.09.2017 11:00:00 - 26.09.2017 11:00:00 (CEST)Le Touquet, France (7003): visibility: 20.09.2017 11:00:00 - 26.09.2017 11:00:00 (CEST)Le Touquet, France (7003): Ensoleillement: 20.09.2017 11:00:00 - 26.09.2017 11:00:00 (CEST)Le Touquet, France (7003): Quantités de précipitations: 20.09.2017 11:00:00 - 26.09.2017 11:00:00 (CEST)
Date & Time tt [°C] td [°C] tt 5cm [°C] ff [km/h] ff [knt] fx [km/h] fx [knt] dd ppp [hPa] vv [km] sd [min] rr [mm]
26.09.2017 11:00:00 17,0 13,1 16,7 11 6 18 10 E 1021,9 7 0 0,0
26.09.2017 10:00:00 14,9 13,8 13,9 3 2 7 4 S 1021,5 3,5 0 0,0
26.09.2017 09:00:00 13,5 12,7 12,6 5 3 6 4 SSE 1021,2 2,0 0 0,0
26.09.2017 08:00:00 13,2 12,3 12,5 0 0 6 3 N 1021,1 1,9 0 0,0
26.09.2017 07:00:00 13,3 12,4 11,9 5 3 6 4 SSE 1020,8 2,5 0 0,0
26.09.2017 06:00:00 12,9 12,0 11,5 4 2 6 3 SSE 1020,6 2,2 0 0,0
26.09.2017 05:00:00 13,1 12,0 11,3 0 0 5 3 N 1020,5 1,9 0 0,0
26.09.2017 04:00:00 13,2 11,8 11,3 4 2 9 5 SSE 1020,4 2,6 0 0,0
26.09.2017 03:00:00 13,2 11,9 10,4 6 3 9 5 SE 1020,3 2,4 0 0,0
26.09.2017 02:00:00 13,9 12,1 12,0 6 3 12 7 SSE 1020,2 2,5 0 0,0
26.09.2017 01:00:00 14,7 12,7 13,4 8 5 19 10 ESE 1020,6 3,1 0 0,0
26.09.2017 00:00:00 16,0 13,5 13,5 10 5 18 10 ENE 1020,7 3,2 0 0,0
25.09.2017 23:00:00 15,7 13,2 13,5 0 0 5 3 N 1020,8 5 0 0,0
25.09.2017 22:00:00 16,1 13,6 14,5 0 0 4 2 N 1020,4 8 0 0,0
25.09.2017 21:00:00 17,1 12,8 - 5 3 11 6 ESE 1020,1 9 - 0,0
25.09.2017 20:00:00 17,6 13,1 16,2 6 3 11 6 ENE 1019,8 11 0 0,0
25.09.2017 19:00:00 18,6 13,0 17,9 5 3 10 6 ENE 1019,4 13 0 0,0
25.09.2017 18:00:00 19,1 12,8 19,2 9 5 16 9 ESE 1019,2 19 0 0,0
25.09.2017 17:00:00 19,7 12,9 20,6 10 6 16 9 E 1019,0 19 0 0,0
25.09.2017 16:00:00 19,8 13,0 21,5 13 7 21 11 ESE 1018,9 20 0 0,0
25.09.2017 15:00:00 20,2 12,9 22,7 15 8 22 12 E 1018,7 19 4 0,0
25.09.2017 14:00:00 19,5 12,7 21,8 14 7 22 12 SE 1018,6 12 0 0,0
25.09.2017 13:00:00 18,5 12,5 20,6 12 7 19 11 SE 1018,9 12 3 0,0
25.09.2017 12:00:00 17,5 12,2 18,2 11 6 23 13 ESE 1018,9 12 0 0,0
25.09.2017 11:00:00 16,5 11,8 16,8 15 8 22 12 SE 1019,1 11 0 0,0
25.09.2017 10:00:00 15,8 11,8 15,2 11 6 18 10 SE 1018,9 13 0 0,0
25.09.2017 09:00:00 15,0 11,2 14,0 10 5 16 9 ESE 1018,6 14 0 0,0
25.09.2017 08:00:00 14,6 10,8 13,3 7 4 14 8 SE 1018,5 13 0 0,0
25.09.2017 07:00:00 14,5 10,7 13,5 6 3 12 6 ESE 1018,4 14 0 0,0
25.09.2017 06:00:00 14,7 10,9 13,8 8 4 14 7 SE 1018,4 14 0 0,0
25.09.2017 05:00:00 14,7 11,5 13,4 6 3 14 8 SE 1018,6 15 0 0,0
25.09.2017 04:00:00 15,2 11,4 14,1 12 6 16 9 ESE 1018,7 17 0 0,0
25.09.2017 03:00:00 14,9 11,5 14,2 8 5 19 10 SE 1019,0 16 0 0,0
25.09.2017 02:00:00 15,5 11,7 14,6 11 6 16 9 ESE 1019,0 19 0 0,0
25.09.2017 01:00:00 15,6 11,8 14,4 8 5 13 7 SE 1019,5 17 0 0,0
25.09.2017 00:00:00 15,4 11,8 14,0 6 3 13 7 SE 1020,0 21 0 0,0
24.09.2017 23:00:00 15,7 12,1 14,5 5 3 14 7 SSE 1020,2 23 0 0,0
24.09.2017 22:00:00 15,9 12,3 14,5 9 5 13 7 ESE 1019,9 22 0 0,0
24.09.2017 21:00:00 16,1 12,5 14,3 9 5 14 8 ESE 1019,5 22 0 0,0
24.09.2017 20:00:00 16,8 11,9 14,4 8 4 11 6 ESE 1019,3 19 0 0,0
24.09.2017 19:00:00 18,6 12,8 17,0 8 4 17 9 SE 1019,5 32 5 0,0
24.09.2017 18:00:00 20,6 12,0 21,3 11 6 23 13 SSE 1019,5 25 51 0,0
24.09.2017 17:00:00 21,5 10,6 21,9 16 9 29 16 SSE 1019,5 13 60 0,0
24.09.2017 16:00:00 21,3 10,7 22,1 17 9 26 14 SE 1019,5 11 57 0,0
24.09.2017 15:00:00 20,9 12,6 24,8 16 9 29 16 ESE 1020,0 11 60 0,0
24.09.2017 14:00:00 20,0 11,5 24,7 18 10 26 14 SE 1020,5 10 60 0,0
24.09.2017 13:00:00 19,4 12,4 23,3 14 8 23 12 SE 1020,9 10 60 0,0
24.09.2017 12:00:00 17,7 12,8 21,9 13 7 21 11 ESE 1021,0 9 60 0,0
24.09.2017 11:00:00 15,7 11,5 16,7 9 5 18 10 ESE 1021,3 8 60 0,0
24.09.2017 10:00:00 13,5 10,7 12,4 9 5 13 7 SE 1021,3 6 60 0,0
24.09.2017 09:00:00 10,9 9,7 8,9 9 5 12 6 SSE 1020,7 7 9 0,0
24.09.2017 08:00:00 10,3 9,1 8,6 8 5 10 6 SSE 1020,7 4,9 0 0,0
24.09.2017 07:00:00 10,9 9,2 9,7 9 5 14 7 SE 1020,4 7 0 0,0
24.09.2017 06:00:00 10,9 9,0 9,8 9 5 14 7 SE 1020,5 7 0 0,0
24.09.2017 05:00:00 11,4 9,1 10,2 9 5 15 8 SE 1020,8 9 0 0,0
24.09.2017 04:00:00 11,6 9,0 9,9 9 5 11 6 SE 1021,1 11 0 0,0
24.09.2017 03:00:00 11,6 9,3 - 8 4 9 5 ESE 1021,3 10 - 0,0
24.09.2017 02:00:00 12,3 10,2 11,1 5 3 8 5 SSE 1021,4 14 0 0,0
24.09.2017 01:00:00 12,2 10,3 11,4 5 3 10 5 SSE 1021,4 26 0 0,0
24.09.2017 00:00:00 12,3 10,2 11,5 8 4 10 6 SSE 1021,6 21 0 0,0
23.09.2017 23:00:00 12,5 10,2 10,8 6 3 9 5 SSE 1021,7 26 0 0,0
23.09.2017 22:00:00 11,8 10,9 8,0 6 3 8 4 SE 1021,8 8 0 0,0
23.09.2017 21:00:00 11,4 10,5 8,0 3 1 5 3 SSE 1021,8 8 0 0,0
23.09.2017 20:00:00 13,6 10,8 8,8 0 0 9 5 N 1021,5 8 0 0,0
23.09.2017 19:00:00 14,9 11,3 14,1 8 4 16 8 NNW 1021,6 23 0 0,0
23.09.2017 18:00:00 16,5 11,6 16,6 11 6 17 9 NW 1021,7 16 22 0,0
23.09.2017 17:00:00 19,0 9,2 19,8 10 5 18 10 SE 1021,8 25 60 0,0
23.09.2017 16:00:00 19,0 9,7 20,1 10 5 16 9 ESE 1022,4 27 57 0,0
23.09.2017 15:00:00 18,3 10,1 20,1 6 3 16 8 SE 1022,9 19 31 0,0
23.09.2017 14:00:00 17,3 11,8 20,1 7 4 12 7 ESE 1023,4 14 2 0,0
23.09.2017 13:00:00 16,5 11,8 20,3 5 3 11 6 ESE 1023,7 13 7 0,0
23.09.2017 12:00:00 15,6 11,2 19,2 4 2 9 5 E 1024,1 14 52 0,0
23.09.2017 11:00:00 13,7 10,7 12,9 2 1 15 8 SSE 1024,4 12 9 0,0
23.09.2017 10:00:00 11,0 9,4 9,7 10 5 15 8 SE 1024,1 14 40 0,0
23.09.2017 09:00:00 8,8 8,3 6,5 8 5 13 7 SE 1024,0 8 32 0,0
23.09.2017 08:00:00 7,0 6,6 6,0 9 5 13 7 SSE 1023,8 9 0 0,0
23.09.2017 07:00:00 7,1 6,5 6,1 10 6 14 7 SE 1024,0 8 0 0,0
23.09.2017 06:00:00 7,8 7,4 6,2 10 6 14 8 SE 1023,9 8 0 0,0
23.09.2017 05:00:00 7,4 6,8 6,5 9 5 12 7 SE 1024,0 11 0 0,0
23.09.2017 04:00:00 7,8 7,2 6,8 9 5 11 6 SE 1024,2 11 0 0,2
23.09.2017 03:00:00 8,2 7,6 6,3 5 3 10 6 SSE 1024,4 12 0 0,0
23.09.2017 02:00:00 8,3 7,7 5,9 6 3 9 5 SSE 1024,6 12 0 0,0
23.09.2017 01:00:00 8,4 7,6 4,8 6 3 8 5 SSE 1024,4 11 0 0,0
23.09.2017 00:00:00 9,0 8,2 5,9 4 2 8 4 S 1024,3 14 0 0,0
22.09.2017 23:00:00 9,3 8,5 4,9 5 3 8 4 S 1024,2 18 0 0,0
22.09.2017 22:00:00 9,9 8,8 5,6 4 2 8 4 SSE 1024,1 28 0 0,0
22.09.2017 21:00:00 10,4 8,8 6,9 2 1 8 4 S 1023,8 59 0 0,0
22.09.2017 20:00:00 13,0 9,1 10,5 5 3 16 9 W 1023,3 3,6 26 0,0
22.09.2017 19:00:00 15,5 8,2 14,4 9 5 23 12 W 1023,1 60 60 0,0
22.09.2017 18:00:00 16,1 10,0 19,5 10 5 22 12 W 1023,0 25 60 0,0
22.09.2017 17:00:00 16,4 10,0 16,9 13 7 23 12 WNW 1022,8 18 56 0,0
22.09.2017 16:00:00 16,2 10,9 17,5 14 8 21 11 WNW 1022,7 18 35 0,0
22.09.2017 15:00:00 15,8 12,0 19,6 11 6 23 12 WNW 1022,6 19 34 0,0
22.09.2017 14:00:00 16,3 12,6 18,6 14 8 29 15 NW 1022,4 24 20 0,0
22.09.2017 13:00:00 16,4 12,0 17,1 15 8 23 13 NW 1022,2 25 22 0,0
22.09.2017 12:00:00 15,3 13,0 17,0 9 5 21 12 WSW 1022,0 30 3 0,0
22.09.2017 11:00:00 15,6 12,9 17,3 6 4 14 7 W 1021,7 20 41 0,0
22.09.2017 10:00:00 14,2 14,0 11,6 5 3 7 4 SE 1021,4 5 38 0,0
22.09.2017 09:00:00 11,3 11,1 7,5 4 2 10 5 SSE 1021,0 0,7 15 0,0
22.09.2017 08:00:00 10,3 10,0 7,0 2 1 4 2 SSW 1020,5 0,2 0 0,0
22.09.2017 07:00:00 11,3 10,8 7,2 0 0 3 2 N 1019,9 1,4 0 0,0
22.09.2017 06:00:00 12,7 12,1 8,1 0 0 5 3 N 1019,8 16 0 0,0
22.09.2017 05:00:00 13,8 13,2 12,5 0 0 4 2 N 1019,7 35 0 0,0
22.09.2017 04:00:00 14,1 13,3 13,3 4 2 5 3 ESE 1019,6 40 0 0,2
22.09.2017 03:00:00 14,4 13,3 13,5 5 3 23 12 SSW 1019,7 30 0 0,4
22.09.2017 02:00:00 16,0 14,2 15,2 7 4 14 7 WSW 1019,5 56 0 0,0
22.09.2017 01:00:00 16,0 13,3 14,6 7 4 11 6 W 1019,1 60 0 0,0
22.09.2017 00:00:00 15,9 12,5 14,6 6 3 14 8 WSW 1018,9 59 0 0,0
21.09.2017 23:00:00 16,0 12,7 15,4 7 4 20 11 WNW 1018,8 60 0 0,0
21.09.2017 22:00:00 16,6 14,1 14,4 8 5 16 9 WNW 1018,7 48 0 0,0
21.09.2017 21:00:00 15,0 12,1 11,5 7 4 9 5 SE 1018,1 45 0 0,0
21.09.2017 20:00:00 15,5 11,9 12,1 3 2 7 4 SE 1017,6 2,7 7 0,0
21.09.2017 19:00:00 17,9 10,5 17,1 6 4 14 8 SSW 1017,4 60 35 0,0
21.09.2017 18:00:00 19,3 10,6 20,9 9 5 23 12 SW 1017,2 54 47 0,0
21.09.2017 17:00:00 20,0 10,1 20,5 14 7 29 15 S 1017,0 39 53 0,0
21.09.2017 16:00:00 19,2 8,8 20,1 16 8 34 18 S 1017,1 26 37 0,0
21.09.2017 15:00:00 19,7 9,6 21,7 20 11 35 19 S 1017,1 21 47 0,0
21.09.2017 14:00:00 19,4 9,0 22,8 22 12 36 19 S 1017,5 24 60 0,0
21.09.2017 13:00:00 18,8 10,4 21,3 16 9 28 15 S 1017,7 30 55 0,0
21.09.2017 12:00:00 17,5 10,1 17,7 15 8 25 14 S 1017,9 31 44 0,0
21.09.2017 11:00:00 15,7 9,8 16,3 12 7 25 14 S 1018,2 28 36 0,0
21.09.2017 10:00:00 14,6 10,0 13,2 12 7 23 12 SSE 1018,2 27 60 0,0
21.09.2017 09:00:00 11,8 9,2 10,2 10 5 20 11 SSE 1018,1 32 6 0,0
21.09.2017 08:00:00 11,0 8,9 9,8 11 6 17 9 SSE 1018,0 34 0 0,0
21.09.2017 07:00:00 10,5 9,1 9,1 10 5 15 8 SE 1017,9 22 0 0,0
21.09.2017 06:00:00 9,9 9,0 8,7 10 5 12 7 SE 1018,0 20 0 0,0
21.09.2017 05:00:00 9,6 8,8 8,4 9 5 11 6 SE 1018,5 18 0 0,0
21.09.2017 04:00:00 9,6 8,8 8,3 9 5 11 6 SE 1018,8 17 0 0,0
21.09.2017 03:00:00 9,6 8,8 8,3 10 5 11 6 SE 1018,9 17 0 0,2
21.09.2017 02:00:00 10,1 9,3 - 9 5 13 7 SE 1019,1 17 - -
21.09.2017 01:00:00 10,4 9,6 8,8 9 5 11 6 SE 1019,2 14 0 0,0
21.09.2017 00:00:00 11,1 10,3 9,1 8 5 11 6 SE 1019,1 14 0 0,0
20.09.2017 23:00:00 11,5 10,9 9,7 7 4 10 5 SE 1019,1 8 0 0,0
20.09.2017 22:00:00 12,2 11,4 8,2 8 4 9 5 SE 1019,3 10 0 0,0
20.09.2017 21:00:00 12,3 11,2 8,3 5 3 7 4 SE 1019,7 14 0 0,0
20.09.2017 20:00:00 14,3 12,2 11,0 3 1 8 5 SSW 1019,5 1,9 13 0,0
20.09.2017 19:00:00 16,3 11,7 15,9 6 3 17 9 SSW 1019,8 53 44 0,0
20.09.2017 18:00:00 16,6 11,7 18,0 10 5 23 12 WSW 1020,1 45 0 0,0
20.09.2017 17:00:00 16,6 11,1 18,6 11 6 28 15 SW 1020,5 16 0 0,0
20.09.2017 16:00:00 16,8 11,7 16,5 15 8 31 17 WSW 1020,8 47 0 0,0
20.09.2017 15:00:00 15,9 12,5 13,6 16 9 35 19 SW 1020,9 39 5 0,0
20.09.2017 14:00:00 14,4 12,6 13,4 13 7 29 15 S 1021,1 22 0 0,0
20.09.2017 13:00:00 15,0 12,1 15,5 16 9 29 16 SSW 1021,4 49 0 0,0
20.09.2017 12:00:00 14,5 12,2 14,6 12 6 25 13 S 1021,5 39 0 0,0
20.09.2017 11:00:00 14,6 12,3 14,8 16 9 26 14 SSW 1021,5 28 0 0,0

tt = Température de l'air
td = dewpoint
tt 5cm = Température de l'air 5cm
ff = Vitesse du vent
fx = gusts
dd = Direction du vent
ppp = reduced air pressure
vv = visibility
sd = Ensoleillement
rr = Quantités de précipitations

stations d'obs. à proximité